Regional Weather Roundup
Issued by NWS

Home | Current Version | Previous Version | Graphics & Text | Print | Product List | Glossary On
Versions: 1 2 3 4 5 6 7 8 9 10 11 12 13 14 15 16 17 18 19 20 21 22 23 24 25 26 27 28
000
ASUS45 KCYS 221910
RWRWY

WYOMING REGIONAL WEATHER ROUNDUP
NATIONAL WEATHER SERVICE CHEYENNE WY
100 PM MDT MON MAY 22 2017

NOTE:  "FAIR" INDICATES FEW OR NO CLOUDS BELOW 12,000 FEET
WITH NO SIGNIFICANT WEATHER AND/OR OBSTRUCTIONS TO VISIBILITY.

WYZ001-222000-
YELLOWSTONE NATIONAL PARK

CITY           SKY/WX    TMP DP  RH WIND       PRES   REMARKS
LK YELLOWSTONE   N/A     52  28  39 VRB6G20   30.31S
W YELLOWSTONE  NOT AVBL

$$
WYZ002>013-054>058-071-098>099-222000-
NORTHERN WYOMING

CITY           SKY/WX    TMP DP  RH WIND       PRES   REMARKS
JACKSON        MOSUNNY   61  27  27 W12G17    30.25F
CODY           CLOUDY    49  36  61 NW9       30.27F
GREYBULL       RAIN      50  44  80 N13       30.19R
WORLAND        CLOUDY    50  43  77 NW14      30.21F
SHERIDAN       CLOUDY    52  44  74 W15       30.20F
BUFFALO        LGT RAIN  45  37  73 NW21G33   30.20F
GILLETTE       FAIR      49  44  83 NW17      30.14F
HULETT         LGT RAIN  50  41  71 NW15      30.11S
NEWCASTLE      FAIR      48  37  66 NW17G23   30.10S

$$
WYZ014>020-022>026-101>103-222000-
CENTRAL WYOMING

CITY           SKY/WX    TMP DP  RH WIND       PRES   REMARKS
BIG PINEY      FAIR      61  24  24 N15G30    30.25F
PINEDALE       CLOUDY    55  27  33 NW12G23   30.24F
DUBOIS         MOCLDY    55  23  28 NW22G30   30.22F
LANDER         CLOUDY    56  39  53 NE18G28   30.20R
RIVERTON       FAIR      51  40  65 NE31G39   30.21R
CASPER         LGT RAIN  44  42  93 VRB3      30.20R
DOUGLAS        NOT AVBL

$$
WYZ021-027>030-104>119-222000-
SOUTHERN WYOMING

CITY           SKY/WX    TMP DP  RH WIND       PRES   REMARKS
EVANSTON       PTSUNNY   57  34  41 NW9       30.31F
KEMMERER         N/A     59  30  33 W13G29    30.30F
FORT BRIDGER   FAIR      63  30  28 NW18G24   30.31F
ROCK SPRINGS   FAIR      60  27  28 W20G26    30.23F
RAWLINS        PTSUNNY   59  27  29 NW22G30   30.18F
LARAMIE        CLOUDY    53  30  41 NW26G37   30.14F
CHEYENNE       LGT RAIN  52  35  52 N16G33    30.12F
TORRINGTON     LGT RAIN  51  36  56 NW29G39   30.09R
PINE BLUFFS    MOCLDY    59  36  41 N16       30.09F

$$




USA.gov is the U.S. government's official web portal to all federal, state and local government web resources and services.